When you browse on this site, cookies collect data to enhance your experience and personalize the content and advertising you see.
Visit our Privacy Policy to learn more. By continuing to use the site, you agree to this use of cookies and data.
  • En España
  • Lista de países
  • Para 7 días
  • Temperatura del agua
  • Mapa Satelital
  • El tiempo en el mapa
  • Informadores
  • user-avatar
    Iniciar sesión

    Tiempo cada hora Verhnie Domanichi

    Hoy, 25 Mayo, Sábado

    Tiempo Temperatura Precipitaciones Viento Presión Humedad
    00:00 +13°C° 0.1 mm 3 mps 738 mmHg 97%
    01:00 +13°C° 0.1 mm 3 mps 738 mmHg 97%
    02:00 +13°C° 0.1 mm 3 mps 738 mmHg 98%
    03:00 +13°C° 0 mm 3 mps 738 mmHg 97%
    04:00 +13°C° 0 mm 3 mps 737 mmHg 96%
    05:00 +14°C° 0 mm 3 mps 737 mmHg 96%
    06:00 +14°C° 0 mm 3 mps 737 mmHg 95%
    07:00 +14°C° 0 mm 3 mps 737 mmHg 94%
    08:00 +14°C° 0 mm 3 mps 737 mmHg 93%
    09:00 +16°C° 0.2 mm 3 mps 737 mmHg 91%
    10:00 +17°C° 0.2 mm 3 mps 737 mmHg 90%
    11:00 +17°C° 0.2 mm 3 mps 736 mmHg 88%
    12:00 +18°C° 0.4 mm 3 mps 736 mmHg 85%
    13:00 +19°C° 0.4 mm 3 mps 736 mmHg 82%
    14:00 +20°C° 0.4 mm 3 mps 736 mmHg 80%
    15:00 +20°C° 0.2 mm 2 mps 735 mmHg 77%
    16:00 +21°C° 0.2 mm 2 mps 735 mmHg 75%
    17:00 +21°C° 0.2 mm 2 mps 735 mmHg 72%
    18:00 +19°C° 1.2 mm 2 mps 735 mmHg 78%
    19:00 +18°C° 1.2 mm 2 mps 735 mmHg 84%
    20:00 +16°C° 1.2 mm 2 mps 734 mmHg 89%
    21:00 +15°C° 0 mm 2 mps 734 mmHg 91%
    22:00 +15°C° 0 mm 2 mps 734 mmHg 92%
    23:00 +14°C° 0 mm 2 mps 735 mmHg 94%

    Mañana, 26 Mayo, Domingo

    Tiempo Temperatura Precipitaciones Viento Presión Humedad
    00:00 +13°C° 0 mm 2 mps 735 mmHg 94%
    01:00 +13°C° 0 mm 2 mps 735 mmHg 94%
    02:00 +12°C° 0 mm 2 mps 735 mmHg 95%
    03:00 +12°C° 0 mm 2 mps 735 mmHg 95%
    04:00 +11°C° 0 mm 3 mps 736 mmHg 95%
    05:00 +11°C° 0 mm 3 mps 736 mmHg 95%
    06:00 +12°C° 0 mm 3 mps 736 mmHg 89%
    07:00 +13°C° 0 mm 3 mps 736 mmHg 84%
    08:00 +14°C° 0 mm 4 mps 736 mmHg 79%
    09:00 +15°C° 0 mm 4 mps 736 mmHg 74%
    10:00 +17°C° 0 mm 4 mps 736 mmHg 68%
    11:00 +18°C° 0 mm 4 mps 736 mmHg 63%
    12:00 +18°C° 0 mm 4 mps 736 mmHg 62%
    13:00 +19°C° 0 mm 4 mps 736 mmHg 61%
    14:00 +19°C° 0 mm 5 mps 736 mmHg 60%
    15:00 +19°C° 0 mm 5 mps 736 mmHg 62%
    16:00 +17°C° 0 mm 5 mps 736 mmHg 64%
    17:00 +18°C° 0 mm 4 mps 736 mmHg 66%
    18:00 +17°C° 0 mm 4 mps 736 mmHg 70%
    19:00 +14°C° 0 mm 3 mps 736 mmHg 75%
    20:00 +13°C° 0 mm 3 mps 736 mmHg 80%
    21:00 +12°C° 0 mm 3 mps 736 mmHg 82%
    22:00 +11°C° 0 mm 3 mps 737 mmHg 85%
    23:00 +11°C° 0 mm 3 mps 737 mmHg 88%

    Pasado mañana, 27 Mayo, Lunes

    Tiempo Temperatura Precipitaciones Viento Presión Humedad
    00:00 +10°C° 0 mm 3 mps 737 mmHg 89%
    01:00 +10°C° 0 mm 3 mps 737 mmHg 91%
    02:00 +10°C° 0 mm 2 mps 737 mmHg 93%
    03:00 +10°C° 0 mm 3 mps 737 mmHg 91%
    04:00 +10°C° 0 mm 3 mps 738 mmHg 90%
    05:00 +11°C° 0 mm 3 mps 738 mmHg 89%
    06:00 +12°C° 0 mm 4 mps 738 mmHg 84%
    07:00 +14°C° 0 mm 5 mps 738 mmHg 78%
    08:00 +15°C° 0 mm 5 mps 739 mmHg 73%
    09:00 +15°C° 0 mm 5 mps 739 mmHg 73%
    10:00 +15°C° 0 mm 5 mps 739 mmHg 73%
    11:00 +15°C° 0 mm 6 mps 739 mmHg 74%
    12:00 +16°C° 0.1 mm 6 mps 739 mmHg 72%
    13:00 +17°C° 0.1 mm 6 mps 739 mmHg 71%
    14:00 +20°C° 0.1 mm 6 mps 739 mmHg 70%
    15:00 +20°C° 0.3 mm 5 mps 739 mmHg 72%
    16:00 +20°C° 0.3 mm 5 mps 739 mmHg 74%
    17:00 +20°C° 0.3 mm 4 mps 739 mmHg 77%
    18:00 +19°C° 0.4 mm 4 mps 739 mmHg 81%
    19:00 +18°C° 0.4 mm 3 mps 739 mmHg 85%
    20:00 +16°C° 0.4 mm 3 mps 739 mmHg 88%
    21:00 +16°C° 0 mm 3 mps 739 mmHg 90%
    22:00 +14°C° 0 mm 3 mps 740 mmHg 91%
    23:00 +14°C° 0 mm 3 mps 740 mmHg 93%

    28 Mayo, Martes

    Tiempo Temperatura Precipitaciones Viento Presión Humedad
    00:00 +13°C° 0 mm 3 mps 740 mmHg 93%
    01:00 +13°C° 0 mm 3 mps 740 mmHg 94%
    02:00 +13°C° 0 mm 3 mps 740 mmHg 94%
    03:00 +13°C° 0 mm 3 mps 740 mmHg 95%
    04:00 +14°C° 0 mm 3 mps 740 mmHg 95%
    05:00 +14°C° 0 mm 3 mps 740 mmHg 95%
    06:00 +17°C° 0 mm 4 mps 740 mmHg 91%
    07:00 +19°C° 0 mm 4 mps 740 mmHg 87%
    08:00 +20°C° 0 mm 4 mps 740 mmHg 83%
    09:00 +21°C° 0.6 mm 5 mps 740 mmHg 78%
    10:00 +23°C° 0.6 mm 5 mps 740 mmHg 73%
    11:00 +25°C° 0.6 mm 5 mps 740 mmHg 67%
    12:00 +25°C° 0.5 mm 5 mps 740 mmHg 70%
    13:00 +25°C° 0.5 mm 5 mps 740 mmHg 73%
    14:00 +25°C° 0.5 mm 5 mps 740 mmHg 75%
    15:00 +23°C° 1.2 mm 5 mps 740 mmHg 79%
    16:00 +22°C° 1.2 mm 4 mps 740 mmHg 83%
    17:00 +21°C° 1.2 mm 4 mps 740 mmHg 87%
    18:00 +21°C° 0.2 mm 4 mps 740 mmHg 87%
    19:00 +20°C° 0.2 mm 4 mps 740 mmHg 88%
    20:00 +20°C° 0.2 mm 5 mps 740 mmHg 88%
    21:00 +19°C° 0 mm 4 mps 740 mmHg 89%
    22:00 +18°C° 0 mm 4 mps 740 mmHg 90%
    23:00 +17°C° 0 mm 4 mps 740 mmHg 91%

    29 Mayo, Miércoles

    Tiempo Temperatura Precipitaciones Viento Presión Humedad
    00:00 +17°C° 0 mm 4 mps 740 mmHg 91%
    01:00 +17°C° 0 mm 4 mps 740 mmHg 92%
    02:00 +17°C° 0 mm 4 mps 740 mmHg 92%
    03:00 +17°C° 0 mm 4 mps 740 mmHg 93%
    04:00 +16°C° 0 mm 5 mps 739 mmHg 93%
    05:00 +17°C° 0 mm 5 mps 739 mmHg 94%
    06:00 +19°C° 0 mm 6 mps 739 mmHg 87%
    07:00 +20°C° 0 mm 6 mps 739 mmHg 79%
    08:00 +21°C° 0 mm 7 mps 739 mmHg 72%
    09:00 +22°C° 0 mm 7 mps 739 mmHg 71%
    10:00 +23°C° 0 mm 7 mps 739 mmHg 69%
    11:00 +24°C° 0 mm 7 mps 739 mmHg 68%
    12:00 +24°C° 0 mm 7 mps 739 mmHg 68%
    13:00 +24°C° 0 mm 7 mps 739 mmHg 68%
    14:00 +26°C° 0 mm 7 mps 739 mmHg 69%
    15:00 +24°C° 1 mm 6 mps 739 mmHg 73%
    16:00 +24°C° 1 mm 6 mps 739 mmHg 76%
    17:00 +23°C° 1 mm 6 mps 739 mmHg 80%
    18:00 +22°C° 2.2 mm 5 mps 739 mmHg 83%
    19:00 +21°C° 2.2 mm 4 mps 740 mmHg 86%
    20:00 +19°C° 2.2 mm 4 mps 740 mmHg 88%
    21:00 +19°C° 0.2 mm 3 mps 740 mmHg 90%
    22:00 +18°C° 0.2 mm 3 mps 740 mmHg 92%
    23:00 +18°C° 0.2 mm 2 mps 741 mmHg 95%

    30 Mayo, Jueves

    Tiempo Temperatura Precipitaciones Viento Presión Humedad
    00:00 +17°C° 1.3 mm 2 mps 741 mmHg 95%
    01:00 +17°C° 1.3 mm 3 mps 741 mmHg 96%
    02:00 +16°C° 1.3 mm 3 mps 741 mmHg 97%
    03:00 +16°C° 0.7 mm 3 mps 742 mmHg 96%
    04:00 +14°C° 0.7 mm 4 mps 743 mmHg 95%
    05:00 +13°C° 0.7 mm 4 mps 743 mmHg 95%
    06:00 +14°C° 0 mm 4 mps 744 mmHg 92%
    07:00 +14°C° 0 mm 4 mps 744 mmHg 88%
    08:00 +15°C° 0 mm 4 mps 745 mmHg 85%
    09:00 +17°C° 0 mm 4 mps 745 mmHg 78%
    10:00 +18°C° 0 mm 4 mps 745 mmHg 71%
    11:00 +19°C° 0 mm 4 mps 746 mmHg 64%
    12:00 +19°C° 0 mm 4 mps 746 mmHg 60%
    13:00 +20°C° 0 mm 4 mps 746 mmHg 56%
    14:00 +20°C° 0 mm 4 mps 746 mmHg 53%
    15:00 +20°C° 0 mm 3 mps 746 mmHg 54%
    16:00 +20°C° 0 mm 3 mps 745 mmHg 55%
    17:00 +19°C° 0 mm 3 mps 745 mmHg 57%
    18:00 +18°C° 0 mm 2 mps 745 mmHg 60%
    19:00 +16°C° 0 mm 2 mps 745 mmHg 64%
    20:00 +14°C° 0 mm 2 mps 745 mmHg 68%
    21:00 +13°C° 0 mm 2 mps 745 mmHg 67%
    22:00 +12°C° 0 mm 2 mps 745 mmHg 66%
    23:00 +12°C° 0 mm 2 mps 746 mmHg 65%
    Mostrar más